This demonstration page uses our WeatherBlox Daily Observations layout. Learn more.

Left ArrowRight Arrow

39.95238, -75.16362

Hourly Observations for February 13, 2017

Temp ( °F °C ) Dew Point ( °F °C ) Humidity (%) Winds ( mph kmh ) Pressure ( in mb ) Visibility ( mi km ) Precip ( " mm )
12:54 am 00:54 Mostly Cloudy 42 5.6 30 -1.1 62 62 W 24 39 29.72 1006 10 16 0.00 0.00
1:54 am 01:54 Mostly Clear 41 5 25 -3.9 53 53 W 22 35 29.75 1007 10 16 0.00 0.00
2:54 am 02:54 Clear 40 4.4 22 -5.6 49 49 WNW 23 37 29.75 1008 10 16 0.00 0.00
3:54 am 03:54 Mostly Clear 38 3.3 20 -6.7 48 48 WNW 26 43 29.79 1009 10 16 0.00 0.00
4:54 am 04:54 Mostly Clear 37 2.8 15 -9.4 41 41 NW 33 54 29.80 1009 10 16 0.00 0.00
5:54 am 05:54 Mostly Clear 36 2.2 16 -8.9 44 44 WNW 26 43 29.83 1010 10 16 0.00 0.00
6:54 am 06:54 Mostly Clear 35 1.7 15 -9.4 44 44 WNW 26 43 29.84 1010 10 16 0.00 0.00
7:54 am 07:54 Mostly Sunny 36 2.2 16 -8.9 44 44 WNW 23 37 29.88 1012 10 16 0.00 0.00
8:54 am 08:54 Partly Cloudy 37 2.8 17 -8.3 44 44 NW 20 31 29.90 1013 10 16 0.00 0.00
9:54 am 09:54 Partly Cloudy 38 3.3 17 -8.3 43 43 WNW 22 35 29.91 1013 10 16 0.00 0.00
10:54 am 10:54 Partly Cloudy 39 3.9 17 -8.3 41 41 WNW 29 46 29.91 1013 10 16 0.00 0.00
11:54 am 11:54 Mostly Sunny 41 5 17 -8.3 38 38 NW 25 41 29.89 1012 10 16 0.00 0.00
12:54 pm 12:54 Mostly Sunny 41 5 16 -8.9 36 36 NW 33 54 29.88 1012 10 16 0.00 0.00
2:54 pm 14:54 Partly Cloudy 42 5.6 18 -7.8 38 38 NW 29 46 29.93 1014 10 16 0.00 0.00
3:54 pm 15:54 Partly Cloudy 39 3.9 17 -8.3 41 41 NNW 25 41 29.96 1015 10 16 0.00 0.00
4:54 pm 16:54 Partly Cloudy 38 3.3 17 -8.3 43 43 NW 24 39 29.98 1015 10 16 0.00 0.00
5:54 pm 17:54 Partly Cloudy 37 2.8 17 -8.3 44 44 NW 20 31 30.01 1016 10 16 0.00 0.00
6:54 pm 18:54 Partly Cloudy 36 2.2 17 -8.3 46 46 NW 13 20 30.03 1017 10 16 0.00 0.00
7:54 pm 19:54 Partly Cloudy 36 2.2 17 -8.3 46 46 WNW 8 13 30.05 1018 10 16 0.00 0.00
8:54 pm 20:54 Partly Cloudy 35 1.7 17 -8.3 48 48 WNW 10 17 30.05 1018 10 16 0.00 0.00
9:54 pm 21:54 Partly Cloudy 34 1.1 17 -8.3 50 50 NW 10 17 30.06 1018 10 16 0.00 0.00
10:54 pm 22:54 Mostly Clear 34 1.1 16 -8.9 48 48 NW 13 20 30.04 1017 10 16 0.00 0.00
11:54 pm 23:54 Mostly Clear 32 0 16 -8.9 52 52 NNW 8 13 30.04 1017 10 16 0.00 0.00

Powered by AerisWeather